• MPC Preparation (Info)

  • MPEC 2019-C33 : 2019 CS

    The following Minor Planet Electronic Circular may be linked-to from your own Web pages, but must not otherwise be redistributed electronically.

    A form allowing access to any MPEC is at the bottom of this page.


    Read MPEC 2019-C32 Read MPEC 2019-C34


    M.P.E.C. 2019-C33                                Issued 2019 Feb. 7, 03:34 UT
    
         The Minor Planet Electronic Circulars contain information on unusual
             minor planets and routine data on comets.  They are published
        on behalf of Division F of the International Astronomical Union by the
              Minor Planet Center, Smithsonian Astrophysical Observatory,
                              Cambridge, MA 02138, U.S.A.
    
                 Prepared using the Tamkin Foundation Computer Network
    
                                  MPC@CFA.HARVARD.EDU
                URL https://www.minorplanetcenter.net/    ISSN 1523-6714
    
                                        2019 CS
    
    Observations:
         K19C00S  C2019 01 03.58454209 43 55.107+11 01 23.13         23.0 GVEC033F51
         K19C00S  C2019 01 03.60804109 43 56.839+11 01 18.20               VEC033F51
         K19C00S  C2019 01 03.61977909 43 57.710+11 01 16.09         22.6 GVEC033F51
         K19C00S* C2019 02 04.41684 10 32 21.530+11 44 18.09         20.7 wUEC033F51
         K19C00S  C2019 02 04.42847 10 32 22.818+11 44 24.21         20.9 wUEC033F51
         K19C00S  C2019 02 04.44017 10 32 24.112+11 44 30.22         20.8 wUEC033F51
         K19C00S  C2019 02 04.45196 10 32 25.414+11 44 36.28         20.9 wUEC033F51
         K19C00S KC2019 02 04.99403 10 33 33.27 +11 48 56.4          20.1 RoEC033K88
         K19C00S  C2019 02 04.99481 10 33 33.63 +11 48 55.4          21.1 VVEC033033
         K19C00S  C2019 02 04.99803 10 33 34.05 +11 48 56.7          21.2 VVEC033033
         K19C00S KC2019 02 04.99826 10 33 33.79 +11 48 59.5          20.2 RoEC033K88
         K19C00S  C2019 02 05.00122 10 33 34.40 +11 48 58.5          20.8 VVEC033033
         K19C00S |C2019 02 05.19426 10 33 59.76 +11 51 31.2          20.5 VuEC033807
         K19C00S |C2019 02 05.19997 10 34 00.44 +11 51 34.7          20.7 VuEC033807
         K19C00S |C2019 02 05.20626 10 34 01.15 +11 51 37.9          20.7 VuEC033807
         K19C00S ^C2019 02 05.50002510 34 38.332+11 53 43.63         20.98GVEC033568
         K19C00S ^C2019 02 05.50097710 34 38.439+11 53 44.14         20.98GVEC033568
         K19C00S ^C2019 02 05.50194710 34 38.550+11 53 44.67         20.99GVEC033568
         K19C00S KC2019 02 06.01742 10 35 46.43 +11 58 11.4          20.4 RoEC033K88
         K19C00S KC2019 02 06.02587 10 35 47.43 +11 58 16.0          20.4 RoEC033K88
         K19C00S KC2019 02 06.03432 10 35 48.49 +11 58 20.6          20.7 RoEC033K88
         K19C00S KC2019 02 06.10333610 35 57.08 +11 59 00.2          20.7 GVEC033L01
         K19C00S KC2019 02 06.14168310 36 01.79 +11 59 21.8          21.0 GVEC033L01
         K19C00S  C2019 02 07.00114 10 38 00.51 +12 07 42.8          21.1 VVEC033033
         K19C00S  C2019 02 07.00471 10 38 00.94 +12 07 44.7          20.8 VVEC033033
         K19C00S  C2019 02 07.00826 10 38 01.40 +12 07 47.1          21.2 VVEC033033
         K19C00S  C2019 02 07.01187 10 38 01.84 +12 07 49.5          21.4 VVEC033033
         K19C00S KC2019 02 07.01984 10 38 02.69 +12 07 55.6          19.8 RoEC033K88
         K19C00S KC2019 02 07.02630 10 38 03.46 +12 07 59.9          20.2 RoEC033K88
         K19C00S KC2019 02 07.03309 10 38 04.35 +12 08 04.4          19.5 RoEC033K88
    
    Observer details:
    033 Karl Schwarzschild Observatory, Tautenburg.  Observers F. Ludwig,
        B. Stecklum, C. Hoegner.  Measurer B. Stecklum.  1.34-m f/3 Schmidt + CCD.
    568 Mauna Kea.  Observers R. Wainscoat, L. Wells, S. Prunet.  Measurers
        R. Weryk, R. Wainscoat.  3.6-m Canada-France-Hawaii Telescope + CCD.
    807 Cerro Tololo Observatory, La Serena.  Observers T. Linder, R. Holmes.
        0.61-m f/6.5 astrograph + CCD.
    F51 Pan-STARRS 1, Haleakala.  Observers J. Bulger, K. Chambers, T. Lowe,
        E. Magnier, A. Schultz, M. Willman.  Measurers S. Chastel, M. Huber,
        Y. Ramanjooloo, R. Wainscoat, R. Weryk, K. Chambers, L. Denneau,
        J. Fairlamb, H. Flewelling, C.-C. Lin, E. Magnier.  1.8-m
        Ritchey-Chretien + CCD.
    K88 GINOP-KHK, Piszkesteto.  Observer K. Sarneczky.  1.02-m
        Ritchey-Chretien + CCD.
    L01 Visnjan Observatory, Tican.  Observers K. Korlevic, G. Kervina.  Measurer
        K. Korlevic.  1.0-m f/2.9 reflector + CCD.
    
    Orbital elements:
    2019 CS                                                  Earth MOID = 0.0479 AU
    Epoch 2019 Apr. 27.0 TT = JDT 2458600.5                 MPC
    M   8.23113              (2000.0)            P               Q
    n   0.42864124     Peri.   73.05030     -0.91043722     +0.41122895
    a   1.7421013      Node   131.20745     -0.39850946     -0.84304803
    e   0.4337402      Incl.    3.40347     -0.11087957     -0.34664212
    P   2.30           H   22.9           G   0.15           U   6
    Residuals in seconds of arc
    190103 F51  0.1+  0.0     190204 K88  0.4-  0.7+    190206 K88  0.4+  0.1-
    190103 F51  0.0   0.1-    190205 033  0.1+  0.1-    190206 L01  0.6+  0.4-
    190103 F51  0.1-  0.1+    190205 807  0.2-  0.3-    190206 L01  0.3+  0.3+
    190204 F51  0.0   0.0     190205 807  0.1+  0.1+    190207 033  0.2-  0.0
    190204 F51  0.0   0.1+    190205 807  0.1-  0.1-    190207 033  0.6-  0.3-
    190204 F51  0.0   0.0     190205 568  0.1-  0.1-    190207 033  0.4-  0.0
    190204 F51  0.0   0.0     190205 568  0.1-  0.1-    190207 033  0.7-  0.2+
    190204 K88  0.8-  0.2-    190205 568  0.1-  0.1-    190207 K88  0.8+  0.4-
    190204 033  0.2-  0.2+    190206 K88  0.3+  0.2+    190207 K88  0.1+  0.1+
    190204 033  0.4+  0.2-    190206 K88  0.1-  0.1+    190207 K88  0.5+  0.5+
    
    Ephemeris:
    2019 CS                  a,e,i = 1.74, 0.43, 3                   q = 0.9865
    Date    TT    R. A. (2000) Decl.     Delta      r     Elong.  Phase     V
    2019 01 08    09 49 51.9 +10 48 48   0.4516  1.3646   141.1    26.9    23.1
    ...
    2019 01 23    10 10 46.8 +10 43 12   0.3170  1.2720   151.6    21.6    22.0
    ...
    2019 01 31    10 23 49.4 +11 13 32   0.2555  1.2242   156.9    18.4    21.3
    ...
    2019 02 06    10 35 44.1 +11 58 25   0.2139  1.1897   160.4    16.2    20.8
    2019 02 07    10 37 59.9 +12 08 08   0.2074  1.1840   160.9    15.8    20.7
    2019 02 08    10 40 21.8 +12 18 34   0.2009  1.1784   161.3    15.5    20.6
    ...
    2019 02 14    10 57 19.3 +13 37 44   0.1645  1.1459   163.2    14.4    20.1
    ...
    2019 02 22    11 32 03.0 +16 17 02   0.1222  1.1055   161.3    16.6    19.4
    ...
    2019 03 09    14 11 00.9 +22 43 28   0.06956 1.0422   134.0    43.3    18.9
    
    A. U. Tomatic                (C) Copyright 2019 MPC           M.P.E.C. 2019-C33
    

    Read MPEC 2019-C32 Read MPEC 2019-C34


    MPEC number:

    Enter an MPEC number in one of the following forms:

    • 1997-B01 (the full form)
    • J97B01 (the packed version of the full form)
    • B01 (the abbreviated form)